Hayakita, Japan

8:29 AM JST on February 25, 2017 (GMT +0900)
New Chitose

Weather History for RJCC - September, 2013

Change the Weather History Date:

Tuesday, September 17, 2013

  Actual Average Record
Temperature  
Mean Temperature 62 °F -  
Max Temperature 77 °F 62 °F 78 °F (2012)
Min Temperature 48 °F 44 °F 44 °F (2014)
Degree Days  
Heating Degree Days 2    
Growing Degree Days 12 (Base 50)    
Moisture  
Dew Point 48 °F    
Average Humidity 63    
Maximum Humidity 100    
Minimum Humidity 25    
Precipitation  
Precipitation 0.00 in - - ()
Sea Level Pressure  
Sea Level Pressure 29.84 in    
Wind  
Wind Speed 9 mph ()    
Max Wind Speed 23 mph    
Max Gust Speed 34 mph    
Visibility 6.2 miles    
Events Rain    
Averages and records for this station are not official NWS values.
T = Trace of Precipitation, MM = Missing Value Source: Averaged Metar Reports

Daily Weather History Graph

Daily Weather History Graph

Search for Another Location

Airport or City:

Trip Planner

Search our weather history database for the weather conditions in past years. The results will help you decide how hot, cold, wet, or windy it might be!

Date:

Astronomy

Sep. 17, 2013 Rise Set
Actual Time 5:14 AM JST 5:40 PM JST
Civil Twilight 4:46 AM JST 6:08 PM JST
Nautical Twilight 4:12 AM JST 6:41 PM JST
Astronomical Twilight 3:38 AM JST 7:16 PM JST
Moon 4:05 PM JST (9/17) 2:22 AM JST (9/17)
Length of Visible Light 13h 22m
Length of Day
12h 25m
Waxing Gibbous, 93% of the Moon is Illuminated
Sep 17
Waxing Gibbous
Sep 19
Full
Sep 27
Last Quarter
Oct 5
New
Oct 12
First Quarter

Hourly Weather History & Observations

Time (JST) Temp. Dew Point Humidity Pressure Visibility Wind Dir Wind Speed Gust Speed Precip Events Conditions
12:00 AM 60.8 °F 51.8 °F 72% 29.62 in 6.2 mi NNW 8.1 mph - N/A Rain Light Rain Showers
12:30 AM 57.2 °F 51.8 °F 82% 29.62 in 6.2 mi West 8.1 mph - N/A   Partly Cloudy
1:00 AM 55.4 °F 51.8 °F 88% 29.65 in 6.2 mi West 6.9 mph - N/A   Scattered Clouds
1:30 AM 55.4 °F 50.0 °F 82% 29.68 in 6.2 mi West 5.8 mph - N/A   Partly Cloudy
2:00 AM 53.6 °F 50.0 °F 88% 29.68 in 6.2 mi WNW 9.2 mph - N/A   Partly Cloudy
2:30 AM 51.8 °F 48.2 °F 88% 29.71 in 6.2 mi NW 5.8 mph - N/A   Partly Cloudy
3:00 AM 53.6 °F 48.2 °F 82% 29.74 in 6.2 mi West 9.2 mph - N/A   Partly Cloudy
3:30 AM 50.0 °F 48.2 °F 94% 29.74 in 6.2 mi WNW 8.1 mph - N/A   Partly Cloudy
4:00 AM 50.0 °F 48.2 °F 94% 29.77 in 6.2 mi SSE 2.3 mph - N/A   Partly Cloudy
4:30 AM 48.2 °F 48.2 °F 100% 29.77 in 6.2 mi ESE 3.5 mph - N/A   Partly Cloudy
5:00 AM 48.2 °F 46.4 °F 93% 29.77 in 6.2 mi South 5.8 mph - N/A   Partly Cloudy
5:30 AM 48.2 °F 48.2 °F 100% 29.80 in 6.2 mi SE 2.3 mph - N/A   Partly Cloudy
6:00 AM 50.0 °F 48.2 °F 94% 29.80 in 6.2 mi SE 3.5 mph - N/A   Partly Cloudy
6:30 AM 53.6 °F 50.0 °F 88% 29.80 in 6.2 mi SE 3.5 mph - N/A   Partly Cloudy
7:00 AM 57.2 °F 51.8 °F 82% 29.80 in 6.2 mi SE 3.5 mph - N/A   Partly Cloudy
7:30 AM 60.8 °F 53.6 °F 77% 29.80 in 6.2 mi SE 4.6 mph - N/A   Partly Cloudy
8:00 AM 64.4 °F 53.6 °F 68% 29.80 in 6.2 mi SE 6.9 mph - N/A   Partly Cloudy
8:30 AM 68.0 °F 53.6 °F 60% 29.83 in 6.2 mi SSW 6.9 mph - N/A   Partly Cloudy
9:00 AM 69.8 °F 51.8 °F 53% 29.83 in 6.2 mi South 11.5 mph - N/A   Partly Cloudy
9:30 AM 69.8 °F 53.6 °F 56% 29.83 in 6.2 mi South 12.7 mph - N/A   Partly Cloudy
10:00 AM 73.4 °F 51.8 °F 47% 29.83 in 6.2 mi South 11.5 mph - N/A   Partly Cloudy
10:30 AM 75.2 °F 53.6 °F 47% 29.80 in 6.2 mi SSW 12.7 mph - N/A   Partly Cloudy
11:00 AM 75.2 °F 48.2 °F 38% 29.80 in 6.2 mi WSW 19.6 mph - N/A   Partly Cloudy
11:20 AM 77.0 °F 44.6 °F 32% 29.80 in 6.2 mi West 20.7 mph 32.2 mph N/A   Partly Cloudy
11:30 AM 77.0 °F 44.6 °F 32% 29.80 in 6.2 mi West 23.0 mph - N/A   Partly Cloudy
11:35 AM 77.0 °F 42.8 °F 29% 29.80 in 6.2 mi West 23.0 mph 34.5 mph N/A   Partly Cloudy
12:00 PM 77.0 °F 44.6 °F 32% 29.80 in 6.2 mi West 23.0 mph 34.5 mph N/A   Partly Cloudy
12:30 PM 77.0 °F 44.6 °F 32% 29.80 in 6.2 mi West 17.3 mph 28.8 mph N/A   Partly Cloudy
1:00 PM 75.2 °F 42.8 °F 31% 29.83 in 6.2 mi West 18.4 mph - N/A   Partly Cloudy
1:30 PM 75.2 °F 41.0 °F 29% 29.83 in 6.2 mi West 20.7 mph - N/A   Partly Cloudy
2:00 PM 75.2 °F 37.4 °F 25% 29.83 in 6.2 mi West 21.9 mph - N/A   Partly Cloudy
2:01 PM 75.2 °F 37.4 °F 25% 29.83 in 6.2 mi West 21.9 mph 33.4 mph N/A   Partly Cloudy
2:30 PM 75.2 °F 41.0 °F 29% 29.83 in 6.2 mi West 16.1 mph - N/A   Partly Cloudy
3:00 PM 75.2 °F 39.2 °F 27% 29.86 in 6.2 mi West 16.1 mph - N/A   Partly Cloudy
3:30 PM 73.4 °F 41.0 °F 31% 29.86 in 6.2 mi WNW 15.0 mph - N/A   Partly Cloudy
4:00 PM 71.6 °F 42.8 °F 35% 29.89 in 6.2 mi WNW 15.0 mph - N/A   Partly Cloudy
4:30 PM 69.8 °F 44.6 °F 40% 29.92 in 6.2 mi WNW 15.0 mph - N/A   Partly Cloudy
5:00 PM 69.8 °F 44.6 °F 40% 29.92 in 6.2 mi NW 12.7 mph - N/A   Partly Cloudy
5:30 PM 66.2 °F 46.4 °F 49% 29.92 in 6.2 mi West 9.2 mph - N/A   Partly Cloudy
6:00 PM 62.6 °F 48.2 °F 59% 29.95 in 6.2 mi ESE 5.8 mph - N/A   Partly Cloudy
6:30 PM 64.4 °F 46.4 °F 52% 29.95 in - East 5.8 mph - N/A   Clear
7:00 PM 62.6 °F 48.2 °F 59% 29.98 in 6.2 mi NE 4.6 mph - N/A   Partly Cloudy
7:30 PM 59.0 °F 50.0 °F 72% 29.98 in 6.2 mi ESE 6.9 mph - N/A   Partly Cloudy
8:00 PM 59.0 °F 50.0 °F 72% 29.98 in 6.2 mi North 4.6 mph - N/A   Partly Cloudy
8:30 PM 57.2 °F 51.8 °F 82% 30.01 in 6.2 mi SSE 5.8 mph - N/A   Partly Cloudy
9:00 PM 57.2 °F 50.0 °F 77% 30.01 in 6.2 mi WSW 3.5 mph - N/A   Partly Cloudy
9:30 PM 53.6 °F 50.0 °F 88% 30.01 in 6.2 mi SSW 3.5 mph - N/A   Partly Cloudy
10:00 PM 55.4 °F 50.0 °F 82% 30.01 in 6.2 mi Variable 1.2 mph - N/A   Partly Cloudy
10:30 PM 51.8 °F 50.0 °F 94% 30.04 in 6.2 mi South 2.3 mph - N/A   Partly Cloudy
11:00 PM 51.8 °F 48.2 °F 88% 30.04 in - Variable 1.2 mph - N/A   Clear
11:30 PM 51.8 °F 50.0 °F 94% 30.04 in 6.2 mi SE 3.5 mph - N/A   Partly Cloudy